Карточка аэропорта UASK

Внимание!
Информация на этой странице в стадии наполнения.
Если вы не увидели какой-то информации, или заметили неточность - пожалуйста сообщите нам!
Спасибо!
Команда RU-STAFF
Название аэропортаУсть-Каменогорск
Название аэропорта (англ.)Ust-Kamenogorsk
Превышение942 ft. (287.1 m.)
Координаты50°2.2020000000002', 82°29.598'
Высота перехода10000ft
Эшелон переходаFL120, QNH<733:FL130
Коды ответчика7250-7253, 0650-0657
Зона ОрВДАлматы РПИ (UAAA)
Данные METARUASK 250900Z 02003MPS 350V050 9999 FEW050 31/17 Q1003 NOSIG RMK QFE727/0970
Проноз погоды (TAF)UASK 250800Z 2509/2518 02003MPS 9999 SCT040 SCT100 TEMPO 2509/2512 SCT030CB
NOTAMshow/hide NOTAM
AWOS   TABLE

Информация о ВПП

ВПП Длина ВПП (м.) Покрытие Курс ВПП Частота ILS
302514Асфальтобетон304109.7
122514Асфальтобетон124111.7

Диспетчерские позиции

Позывной Наименование органа УВД Частота
UASK_TWRУсть-Каменогорск-Вышка130.1



Спутниковое изображение